Location: College Park
(38.9810°N, 76.9370°W)
Time: 20:37:44
(UTC-04:00)

N. Korean satellite - Pass Details

Date: 09 February 2018
Orbit: 458 x 514 km, 97.2° (Epoch: 23 May)

Event Time Altitude Azimuth Distance (km) Brightness Sun altitude
Rises 18:50:13 0° 200° (SSW) 2,479 10.5 -14.4°
Reaches altitude 10° 18:52:42 10° 219° (SW) 1,603 9.8 -14.9°
Maximum altitude 18:55:12 19° 265° (W) 1,167 9.6 -15.4°
Drops below altitude 10° 18:57:41 10° 312° (NW) 1,606 9.8 -15.9°
Sets 19:00:11 0° 331° (NNW) 2,485 10.5 -16.4°
